Regional Weather Roundup
Issued by NWS

Home | Current Version | Previous Version | Text Only | Print | Product List | Glossary On
Versions: 1 2 3 4 5 6 7 8 9 10 11 12 13 14 15 16 17 18 19 20 21 22 23 24 25 26 27 28 29 30 31 32 33 34 35 36 37 38 39 40 41 42 43 44 45 46 47
000
ASUS46 KSEW 251310
RWRWA

WASHINGTON REGIONAL WEATHER ROUNDUP
NATIONAL WEATHER SERVICE SEATTLE WA
500 AM PST THU DEC 25 2014

NOTE:"FAIR" INDICATES FEW OR NO CLOUDS BELOW 12,000 FEET WITH NO
SIGNIFICANT WEATHER AND/OR OBSTRUCTIONS TO VISIBILITY.

WAZ505-507>509-251400-
SEATTLE, TACOMA, EVERETT, AND VICINITY

CITY           SKY/WX    TMP DP  RH WIND       PRES   REMARKS
EVERETT        CLOUDY    40  35  83 CALM      30.11S
BOEING FIELD   CLOUDY    44  39  82 SE6       30.14R
RENTON         CLOUDY    42  41  96 CALM      30.13S
SEATAC AIRPORT CLOUDY    41  37  86 E5        30.13R
JBLM-MCCHORD   FOG       32  30  93 CALM      30.14R VSB 1/2
PUYALLUP       NOT AVBL
BREMERTON      CLOUDY    36  36 100 CALM      30.15R VSB 1/2
JBLM-FT LEWIS  PTCLDY    31  31  99 E1        30.13R
TACOMA NARROWS CLOUDY    41  38  89 CALM      30.13R
$$

WAZ001-503-506-510-514-515-251400-
NORTH INTERIOR

CITY           SKY/WX    TMP DP  RH WIND       PRES   REMARKS
BELLINGHAM     CLOUDY    39  37  92 CALM      30.10R
FRIDAY HARBOR  MOCLDY    37  34  89 CALM      30.12R
EASTSOUND      PTCLDY    45  36  70 CALM      30.10R
PORT ANGELES   PTCLDY    40  32  73 W12       30.11R
NAS WHIDBEY    CLOUDY    47  35  63 W7        30.12R
ARLINGTON      CLOUDY    39  36  87 S6        30.14R
BURLINGTON     MOCLDY    39  39 100 CALM      30.13R
$$

WAZ020-022-039-040-504-511-512-251400-
SOUTHWEST INTERIOR

CITY           SKY/WX    TMP DP  RH WIND       PRES   REMARKS
SHELTON        FOG       34  33  96 CALM      30.11S VSB 1/2
OLYMPIA        FOG       31  31 100 CALM      30.14R VSB 1/4
CHEHALIS       FOG       34  34 100 CALM      30.14R VSB 1/4
KELSO          CLOUDY    39  36  87 CALM      30.18R
VANCOUVER      LGT RAIN  43  40  89 W5        30.16R
SCAPPOOSE, OR  CLOUDY    44  39  82 CALM      30.15R
PORTLAND, OR   LGT RAIN  44  41  89 W8        30.16R
$$

WAZ021-516-517-251400-
WASHINGTON COAST

CITY           SKY/WX    TMP DP  RH WIND       PRES   REMARKS
FORKS          MOCLDY    44  37  76 CALM      30.12S
HOQUIAM        LGT RAIN  44  39  82 NW14      30.15R
ASTORIA, OR    PTCLDY    47  35  63 NW15      30.16R
$$

WAZ019-023-024-040-518-519-251400-
CASCADE MOUNTAINS AND COLUMBIA GORGE

CITY           SKY/WX    TMP DP  RH WIND       PRES   REMARKS
TROUTDALE, OR  CLOUDY    44  40  85 W8        30.15R
THE DALLES, OR CLOUDY    43  33  68 W8        30.08R
$$

WAZ026-027-041>044-520-521-251400-
EAST SLOPES

CITY           SKY/WX    TMP DP  RH WIND       PRES   REMARKS
OMAK           CLEAR     26  22  84 W5        30.00R
WENATCHEE      CLEAR     33  25  72 W6        29.99R
ELLENSBURG     CLEAR     37  27  67 NW12      29.99R
YAKIMA         MOCLDY    36  25  64 W5        30.03R
$$

WAZ028-034-035-251400-
COLUMBIA BASIN

CITY           SKY/WX    TMP DP  RH WIND       PRES   REMARKS
EPHRATA        CLEAR     38  25  59 N5        29.97R
MOSES LAKE     CLEAR     36  25  64 NW10      29.99R
PASCO          CLEAR     27  26  96 CALM      30.03R
HERMISTON, OR  CLEAR     28  27  96 SW3       30.03R
$$

WAZ036>038-251400-
NORTHEAST WASHINGTON

CITY           SKY/WX    TMP DP  RH WIND       PRES   REMARKS
SPOKANE GEIGER CLEAR     25  22  88 S5        29.90R
SPOKANE FELTS  FOG       27  25  92 E3        29.93R VSB 1/4
FAIRCHILD AFB  CLEAR     26  23  90 SW5       29.90R
COEURDALENE,ID CLOUDY    28  28 100 W5        29.89R VSB 1/2
DEER PARK      CLEAR     20  18  92 CALM      29.90R
$$

WAZ029>033-251400-
SOUTHEAST WASHINGTON

CITY           SKY/WX    TMP DP  RH WIND       PRES   REMARKS
PULLMAN        CLEAR     29  26  89 W9        29.91R
LEWISTON, ID   CLEAR     36  26  67 W8        29.94R
WALLA WALLA    CLEAR     35  31  85 S10       30.00R WCI  27
PENDLETON, OR  CLEAR     33  30  88 NW8       30.00R
$$



USA.gov is the U.S. government's official web portal to all federal, state and local government web resources and services.